Location: Boissi�res
(45.2500°N, 2.3667°E)
Time: 07:32:41
(UTC+00:00)

H-2A R/B - Pass Details

Date: 03 March 2021
Orbit: 732 x 837 km, 98.2° (Epoch: 19 April)

Event Time Altitude Azimuth Distance (km) Brightness Sun altitude
Rises 18:00:25 0° 152° (SSE) 3,365 5.1 -4.3°
Reaches altitude 10° 18:02:47 10° 148° (SSE) 2,441 4.3 -4.7°
Maximum altitude 18:08:05 56° 71° (ENE) 991 2.3 -5.6°
Drops below altitude 10° 18:13:25 10° 355° (N) 2,455 4.7 -6.6°
Sets 18:15:49 0° 351° (N) 3,387 5.4 -7.0°
